Hauptseite
METAR-TAF:

METAR-TAF

Flughäfen :

Fliegerhorst Lechfeld

Lechfeld, Deutschland

Breite: 48-11N, Länge: 010-52E, Höhe: 555 m

Beobachtung

Neuester Wetterbericht von vor 1 Stunde und 0 Minuten, um 03:20 UTC
Wind 5 kt aus Nordost
Temperatur -4°C
Luftfeuchtigkeit 93%
Luftdruck 1017 hPa
Sichtweite: 4000 m
Durchbrochene Bewölkung in der Höhe von 300 ft
feuchter Dunst

METAR: ETSL 210320Z 04005KT 4000 BR BKN003 M04/M05 Q1017 YLO

Zeit: 05:20 (04:20 UTC)


TAF: fehlend

Wetterbeobachtungen und Prognosen von mehr als 4000 Flughäfen (METAR und TAF Bericht).

Die verfügbaren Stationen werden durch gelbe und rote Markierungen auf der Karte dargestellt.

Führen Sie die Maus auf sie, um den Namen der Station zu sehen.

Darauf klicken, um die Beobachtung von Wetterbeobachtungen und Prognosen zu sehen.

Um die Karte zu ändern : klicken Sie auf den grünen Tasten mit einem schwarzen Kreuz Zum Vergrößern, auf den grünen Button mit einem Gedankenstrich zu verkleinern, oder auf die grünen Pfeile für benachbarte Karten.


METAR-TAF: